Brainerd, MN

12:07 PM CDT on April 25, 2017 (GMT -0500)
Brainerd-Crow Wing County Regional

Weather History for KBRD - December, 2012

Change the Weather History Date:

Friday, December 14, 2012

  Actual Average Record
Temperature  
Mean Temperature 16 °F -  
Max Temperature 28 °F 25 °F 51 °F (1998)
Min Temperature 3 °F 2 °F -27 °F (1985)
Degree Days  
Heating Degree Days 50    
Moisture  
Dew Point 12 °F    
Average Humidity 76    
Maximum Humidity 88    
Minimum Humidity 69    
Precipitation  
Precipitation 0.00 in - - ()
Sea Level Pressure  
Sea Level Pressure 30.05 in    
Wind  
Wind Speed 2 mph (ESE)    
Max Wind Speed 12 mph    
Max Gust Speed 17 mph    
Visibility 7 miles    
Events      
Averages and records for this station are not official NWS values.
T = Trace of Precipitation, MM = Missing Value Source: NWS Daily Summary

Daily Weather History Graph

Daily Weather History Graph

Search for Another Location

Airport or City:

Trip Planner

Search our weather history database for the weather conditions in past years. The results will help you decide how hot, cold, wet, or windy it might be!

Date:

Astronomy

Dec. 14, 2012 Rise Set
Actual Time 7:52 AM CST 4:30 PM CST
Civil Twilight 7:17 AM CST 5:05 PM CST
Nautical Twilight 6:39 AM CST 5:43 PM CST
Astronomical Twilight 6:03 AM CST 6:19 PM CST
Moon 8:55 AM CST (12/14) 6:27 PM CST (12/14)
Length of Visible Light 9h 47m
Length of Day
8h 37m
Waxing Crescent, 3% of the Moon is Illuminated
Dec 14
Waxing Crescent
Dec 19
First Quarter
Dec 28
Full
Jan 4
Last Quarter
Jan 11
New

Hourly Weather History & Observations

Time (CST) Temp. Windchill Dew Point Humidity Pressure Visibility Wind Dir Wind Speed Gust Speed Precip Events Conditions
12:53 AM 3.9 °F - -2.0 °F 76% 30.18 in 7.0 mi Calm Calm - N/A   Clear
1:53 AM 5.0 °F - -0.9 °F 76% 30.18 in 7.0 mi Calm Calm - N/A   Clear
2:53 AM 3.9 °F - -2.0 °F 76% 30.17 in 7.0 mi Calm Calm - N/A   Clear
3:53 AM 3.0 °F - -2.9 °F 76% 30.16 in 8.0 mi Calm Calm - N/A   Clear
4:53 AM 3.9 °F - -2.9 °F 73% 30.15 in 8.0 mi Calm Calm - N/A   Clear
6:53 AM 3.9 °F - -2.0 °F 76% 30.15 in 8.0 mi Calm Calm - N/A   Clear
7:53 AM 3.0 °F - -2.9 °F 76% 30.14 in 9.0 mi Calm Calm - N/A   Clear
8:53 AM 7.0 °F - 1.9 °F 80% 30.14 in 8.0 mi Calm Calm - N/A   Clear
9:53 AM 15.1 °F - 12.0 °F 88% 30.14 in 7.0 mi Calm Calm - N/A   Clear
10:53 AM 23.0 °F 17.0 °F 18.0 °F 81% 30.12 in 5.0 mi ESE 4.6 mph - N/A   Haze
11:53 AM 24.1 °F 18.2 °F 18.0 °F 77% 30.09 in 5.0 mi East 4.6 mph - N/A   Haze
12:53 PM 26.1 °F 19.4 °F 18.0 °F 71% 30.07 in 6.0 mi ESE 5.8 mph - N/A   Haze
1:53 PM 28.0 °F 24.2 °F 19.0 °F 69% 30.03 in 7.0 mi Variable 3.5 mph - N/A   Clear
2:53 PM 28.0 °F 18.1 °F 19.0 °F 69% 30.01 in 7.0 mi SE 11.5 mph 16.1 mph N/A   Clear
3:53 PM 28.0 °F 22.8 °F 19.9 °F 72% 29.99 in 6.0 mi Variable 4.6 mph - N/A   Haze
4:53 PM 27.0 °F 23.0 °F 19.9 °F 75% 29.98 in 7.0 mi East 3.5 mph - N/A   Clear
5:53 PM 27.0 °F 19.5 °F 21.0 °F 78% 29.95 in 7.0 mi East 6.9 mph - N/A   Clear
6:53 PM 27.0 °F 19.5 °F 21.0 °F 78% 29.95 in 7.0 mi Variable 6.9 mph - N/A   Clear
7:53 PM 26.1 °F 19.4 °F 19.9 °F 78% 29.95 in 7.0 mi Variable 5.8 mph - N/A   Clear
8:53 PM 27.0 °F 20.5 °F 21.0 °F 78% 29.92 in 7.0 mi Variable 5.8 mph - N/A   Clear
9:53 PM 28.0 °F 21.7 °F 21.0 °F 75% 29.90 in 7.0 mi East 5.8 mph - N/A   Clear
10:53 PM 28.0 °F 18.6 °F 21.9 °F 78% 29.86 in 7.0 mi ESE 10.4 mph 17.3 mph N/A   Clear
11:53 PM 28.9 °F 25.2 °F 21.9 °F 75% 29.84 in 7.0 mi Variable 3.5 mph - N/A   Clear